SAS925 EKCH-KIAD

Flight info

Callsign SAS925
Flight time N/A
Altitude 36000
Route GOLGA DCT AMSEV DCT GUNPA/M080F380 DCT 62N010W 61N020W 5930N03000W 58N040W 56N050W DCT JANJO/N0459F380 DCT ANCER/N0453F400 DCT ART DCT PSB WAYNZ1
Aircraft A343/H-SDE2E3FGHIJ4J5M1RWXY/LB1D1

Departure

Time 2026-04-24 07:44
Airport Copenhagen Kastrup Airport (EKCH)

Arrival

Time N/A
Airport Washington Dulles International Airport (KIAD)
Time Latitude Longitude Altitude Speed Heading
2026-04-24 07:19 55.62432 12.65065 28 ft 0 kts 269°
2026-04-24 07:33 55.62432 12.65096 28 ft 4 kts 273°
2026-04-24 07:34 55.62430 12.65143 28 ft 4 kts 276°
2026-04-24 07:34 55.62429 12.65187 28 ft 4 kts 242°
2026-04-24 07:34 55.62435 12.65200 28 ft 1 kts 178°
2026-04-24 07:34 55.62414 12.65201 28 ft 4 kts 178°
2026-04-24 07:35 55.62399 12.65202 28 ft 0 kts 178°
2026-04-24 07:37 55.62398 12.65202 28 ft 1 kts 178°
2026-04-24 07:37 55.62382 12.65203 28 ft 4 kts 178°
2026-04-24 07:38 55.62344 12.65205 28 ft 7 kts 178°
2026-04-24 07:38 55.62285 12.65205 28 ft 10 kts 181°
2026-04-24 07:38 55.62207 12.65172 28 ft 13 kts 208°
2026-04-24 07:38 55.62122 12.65077 28 ft 16 kts 213°
2026-04-24 07:39 55.62024 12.64964 28 ft 18 kts 213°
2026-04-24 07:39 55.61910 12.64833 27 ft 21 kts 213°
2026-04-24 07:39 55.61785 12.64688 28 ft 22 kts 213°
2026-04-24 07:39 55.61657 12.64541 28 ft 22 kts 213°
2026-04-24 07:40 55.61530 12.64393 28 ft 22 kts 213°
2026-04-24 07:40 55.61402 12.64249 28 ft 22 kts 212°
2026-04-24 07:40 55.61273 12.64104 28 ft 22 kts 212°
2026-04-24 07:40 55.61143 12.63957 28 ft 22 kts 213°
2026-04-24 07:41 55.61014 12.63804 28 ft 22 kts 213°
2026-04-24 07:41 55.60885 12.63654 28 ft 22 kts 213°
2026-04-24 07:41 55.60755 12.63506 28 ft 22 kts 213°
2026-04-24 07:41 55.60629 12.63347 28 ft 22 kts 220°
2026-04-24 07:42 55.60517 12.63176 28 ft 17 kts 220°
2026-04-24 07:42 55.60434 12.63127 28 ft 11 kts 162°
2026-04-24 07:42 55.60378 12.63217 28 ft 11 kts 132°
2026-04-24 07:42 55.60339 12.63307 30 ft 6 kts 110°
2026-04-24 07:43 55.60355 12.63370 30 ft 7 kts 49°
2026-04-24 07:43 55.60366 12.63387 30 ft 0 kts 41°
2026-04-24 07:43 55.60370 12.63393 30 ft 5 kts 41°
2026-04-24 07:43 55.60493 12.63582 28 ft 49 kts 41°
2026-04-24 07:44 55.60880 12.64183 29 ft 97 kts 41°
2026-04-24 07:44 55.61498 12.65139 28 ft 137 kts 41°
2026-04-24 07:44 55.62276 12.66340 245 ft 152 kts 39°
2026-04-24 07:44 55.63074 12.67573 688 ft 154 kts 38°
2026-04-24 07:45 55.63889 12.68825 1122 ft 160 kts 37°
2026-04-24 07:45 55.64794 12.70112 1355 ft 174 kts 26°
2026-04-24 07:45 55.65998 12.70470 1508 ft 185 kts 353°
2026-04-24 07:45 55.67360 12.70279 1742 ft 205 kts 354°
2026-04-24 07:46 55.68836 12.70078 2072 ft 222 kts 355°
2026-04-24 07:46 55.70417 12.69891 2553 ft 231 kts 355°
2026-04-24 07:46 55.72043 12.69721 3172 ft 236 kts 355°
2026-04-24 07:46 55.73689 12.69541 3796 ft 239 kts 354°
2026-04-24 07:47 55.75358 12.69361 4411 ft 241 kts 354°
2026-04-24 07:47 55.77044 12.69181 5040 ft 244 kts 354°
2026-04-24 07:47 55.78745 12.69002 5650 ft 246 kts 354°
2026-04-24 07:47 55.80445 12.68662 6264 ft 247 kts 346°
2026-04-24 07:48 55.82084 12.67735 6852 ft 249 kts 336°
2026-04-24 07:48 55.83570 12.66132 7425 ft 252 kts 324°
2026-04-24 07:48 55.84924 12.64129 7992 ft 255 kts 320°
2026-04-24 07:48 55.86204 12.61916 8569 ft 258 kts 316°
2026-04-24 07:49 55.87448 12.59571 9068 ft 265 kts 315°
2026-04-24 07:49 55.88722 12.57086 9344 ft 278 kts 315°
2026-04-24 07:49 55.90052 12.54476 9644 ft 290 kts 315°
2026-04-24 07:49 55.91431 12.51780 10058 ft 297 kts 315°
2026-04-24 07:50 55.92847 12.49032 10415 ft 306 kts 315°
2026-04-24 07:50 55.94300 12.46233 10652 ft 317 kts 315°
2026-04-24 07:50 55.95826 12.43306 10978 ft 325 kts 315°
2026-04-24 07:50 55.97375 12.40336 11393 ft 329 kts 315°
2026-04-24 07:51 55.98942 12.37328 11872 ft 332 kts 315°
2026-04-24 07:51 56.00520 12.34294 12353 ft 334 kts 315°
2026-04-24 07:51 56.02107 12.31241 12852 ft 336 kts 315°
2026-04-24 07:51 56.03699 12.28171 13347 ft 338 kts 315°
2026-04-24 07:52 56.05283 12.25114 13822 ft 340 kts 315°
2026-04-24 07:52 56.06920 12.21950 14266 ft 343 kts 315°
2026-04-24 07:52 56.08543 12.18809 14681 ft 345 kts 315°
2026-04-24 07:52 56.10181 12.15634 15100 ft 347 kts 314°
2026-04-24 07:53 56.11828 12.12439 15535 ft 350 kts 314°
2026-04-24 07:53 56.13486 12.09218 15959 ft 352 kts 314°
2026-04-24 07:53 56.15127 12.06025 16376 ft 354 kts 314°
2026-04-24 07:53 56.16802 12.02763 16818 ft 355 kts 313°
2026-04-24 07:54 56.18479 11.99491 17298 ft 357 kts 313°
2026-04-24 07:54 56.20163 11.96201 17745 ft 359 kts 313°
2026-04-24 07:54 56.21861 11.92880 18177 ft 362 kts 313°
2026-04-24 07:54 56.23567 11.89536 18618 ft 364 kts 313°
2026-04-24 07:55 56.25282 11.86172 19037 ft 366 kts 313°
2026-04-24 07:55 56.27007 11.82782 19479 ft 367 kts 312°
2026-04-24 07:55 56.28734 11.79385 19924 ft 369 kts 312°
2026-04-24 07:55 56.30469 11.75965 20337 ft 371 kts 312°
2026-04-24 07:56 56.32211 11.72528 20742 ft 373 kts 312°
2026-04-24 07:56 56.33963 11.69067 21159 ft 374 kts 312°
2026-04-24 07:56 56.35721 11.65587 21560 ft 376 kts 311°
2026-04-24 07:56 56.37483 11.62095 21967 ft 378 kts 311°
2026-04-24 07:57 56.39258 11.58573 22355 ft 380 kts 311°
2026-04-24 07:57 56.41039 11.55031 22750 ft 382 kts 311°
2026-04-24 07:57 56.42833 11.51460 23070 ft 386 kts 311°
2026-04-24 07:57 56.44637 11.47862 23446 ft 387 kts 311°
2026-04-24 07:58 56.46452 11.44238 23786 ft 389 kts 311°
2026-04-24 07:58 56.48272 11.40598 24108 ft 391 kts 311°
2026-04-24 07:58 56.50078 11.36981 24420 ft 392 kts 311°
2026-04-24 07:58 56.51904 11.33318 24747 ft 393 kts 311°
2026-04-24 07:59 56.53744 11.29621 25066 ft 394 kts 311°
2026-04-24 07:59 56.55581 11.25925 25379 ft 395 kts 311°
2026-04-24 07:59 56.57425 11.22207 25684 ft 397 kts 310°
2026-04-24 07:59 56.59269 11.18484 26005 ft 398 kts 310°
2026-04-24 08:00 56.61121 11.14740 26325 ft 399 kts 310°
2026-04-24 08:00 56.62978 11.10977 26608 ft 401 kts 310°
2026-04-24 08:00 56.64841 11.07200 26894 ft 402 kts 310°
2026-04-24 08:00 56.66710 11.03402 27196 ft 403 kts 310°
2026-04-24 08:01 56.68582 10.99592 27502 ft 404 kts 310°
2026-04-24 08:01 56.70460 10.95765 27800 ft 406 kts 310°
2026-04-24 08:01 56.72341 10.91924 28091 ft 407 kts 310°
2026-04-24 08:01 56.74202 10.88119 28379 ft 408 kts 310°
2026-04-24 08:02 56.76089 10.84255 28670 ft 409 kts 310°
2026-04-24 08:02 56.77977 10.80381 28947 ft 410 kts 310°
2026-04-24 08:02 56.79876 10.76478 29227 ft 411 kts 309°
2026-04-24 08:02 56.81779 10.72561 29504 ft 412 kts 309°
2026-04-24 08:03 56.83680 10.68641 29775 ft 413 kts 309°
2026-04-24 08:03 56.85590 10.64696 30044 ft 415 kts 309°
2026-04-24 08:03 56.87502 10.60741 30281 ft 416 kts 309°
2026-04-24 08:03 56.89419 10.56767 30486 ft 418 kts 309°
2026-04-24 08:04 56.91345 10.52770 30662 ft 420 kts 309°
2026-04-24 08:04 56.93279 10.48748 30883 ft 421 kts 309°
2026-04-24 08:04 56.95218 10.44710 31138 ft 422 kts 310°
2026-04-24 08:04 56.97156 10.40667 31318 ft 424 kts 310°
2026-04-24 08:05 56.99101 10.36602 31553 ft 424 kts 310°
2026-04-24 08:05 57.01043 10.32538 31853 ft 423 kts 310°
2026-04-24 08:05 57.02979 10.28479 32154 ft 422 kts 309°
2026-04-24 08:05 57.04911 10.24422 32450 ft 421 kts 309°
2026-04-24 08:06 57.06830 10.20383 32740 ft 420 kts 309°
2026-04-24 08:06 57.08748 10.16341 33027 ft 419 kts 309°
2026-04-24 08:06 57.10633 10.12360 33302 ft 418 kts 309°
2026-04-24 08:06 57.12537 10.08333 33545 ft 417 kts 309°
2026-04-24 08:07 57.14443 10.04292 33716 ft 419 kts 309°
2026-04-24 08:07 57.16357 10.00229 33903 ft 419 kts 309°
2026-04-24 08:07 57.18267 9.96170 34168 ft 418 kts 309°
2026-04-24 08:07 57.20167 9.92122 34386 ft 417 kts 309°
2026-04-24 08:08 57.22067 9.88070 34568 ft 417 kts 309°
2026-04-24 08:08 57.23970 9.84002 34751 ft 417 kts 309°
2026-04-24 08:08 57.25224 9.81320 34873 ft 417 kts 309°
2026-04-24 08:09 57.29012 9.73194 35337 ft 415 kts 309°
2026-04-24 08:09 57.30884 9.69169 35611 ft 412 kts 309°
2026-04-24 08:09 57.32757 9.65135 35736 ft 413 kts 309°
2026-04-24 08:09 57.34630 9.61091 35870 ft 414 kts 309°
2026-04-24 08:10 57.36508 9.57030 35970 ft 415 kts 309°
2026-04-24 08:10 57.38383 9.52970 36092 ft 416 kts 309°
2026-04-24 08:10 57.40267 9.48882 36134 ft 417 kts 309°
2026-04-24 08:11 57.44017 9.40729 36134 ft 412 kts 309°
2026-04-24 08:11 57.47728 9.32631 36137 ft 412 kts 309°
2026-04-24 08:12 57.51413 9.24562 36140 ft 412 kts 309°
2026-04-24 08:12 57.55116 9.16424 36137 ft 412 kts 308°
2026-04-24 08:13 57.58814 9.08271 36135 ft 412 kts 308°
2026-04-24 08:13 57.62504 9.00108 36137 ft 411 kts 308°
2026-04-24 08:14 57.66176 8.91957 36139 ft 409 kts 308°
2026-04-24 08:14 57.69835 8.83804 36138 ft 409 kts 308°
2026-04-24 08:15 57.73493 8.75627 36140 ft 409 kts 308°
2026-04-24 08:15 57.77123 8.67483 36143 ft 409 kts 308°
2026-04-24 08:16 57.80765 8.59286 36143 ft 409 kts 308°
2026-04-24 08:16 57.84404 8.51065 36134 ft 409 kts 308°
2026-04-24 08:17 57.88039 8.42825 36143 ft 410 kts 307°
2026-04-24 08:17 57.91668 8.34569 36141 ft 410 kts 307°
2026-04-24 08:18 57.95276 8.26335 36136 ft 410 kts 307°
2026-04-24 08:18 57.98894 8.18048 36135 ft 409 kts 307°
2026-04-24 08:19 58.02503 8.09751 36132 ft 409 kts 307°
2026-04-24 08:19 58.06110 8.01430 36131 ft 409 kts 307°
2026-04-24 08:20 58.09717 7.93078 36132 ft 413 kts 307°
2026-04-24 08:20 58.13371 7.84587 36131 ft 418 kts 307°
2026-04-24 08:21 58.17033 7.76051 36132 ft 417 kts 307°
2026-04-24 08:21 58.20688 7.67501 36136 ft 417 kts 307°
2026-04-24 08:22 58.24336 7.58936 36134 ft 417 kts 307°
2026-04-24 08:22 58.27971 7.50364 36138 ft 416 kts 307°
2026-04-24 08:23 58.31590 7.41804 36139 ft 413 kts 307°
2026-04-24 08:23 58.35122 7.33422 36135 ft 406 kts 307°
2026-04-24 08:24 58.38659 7.24995 36143 ft 404 kts 307°
2026-04-24 08:24 58.42144 7.16658 36151 ft 404 kts 307°
2026-04-24 08:25 58.45646 7.08252 36152 ft 404 kts 307°
2026-04-24 08:25 58.49147 6.99823 36154 ft 404 kts 307°
2026-04-24 08:26 58.52638 6.91389 36166 ft 404 kts 307°
2026-04-24 08:26 58.56123 6.82936 36168 ft 403 kts 307°
2026-04-24 08:27 58.59590 6.74496 36189 ft 403 kts 307°
2026-04-24 08:27 58.63048 6.66047 36188 ft 403 kts 307°
2026-04-24 08:28 58.66506 6.57569 36197 ft 403 kts 307°
2026-04-24 08:28 58.69935 6.49134 36221 ft 403 kts 307°
2026-04-24 08:29 58.73385 6.40614 36223 ft 403 kts 307°
2026-04-24 08:29 58.76827 6.32085 36220 ft 403 kts 307°
2026-04-24 08:30 58.80269 6.23522 36238 ft 405 kts 307°
2026-04-24 08:30 58.83725 6.14894 36253 ft 407 kts 307°
2026-04-24 08:31 58.87178 6.06242 36257 ft 407 kts 307°
2026-04-24 08:31 58.90608 5.97617 36267 ft 406 kts 306°
2026-04-24 08:32 58.94044 5.88948 36263 ft 406 kts 306°
2026-04-24 08:32 58.97479 5.80246 36264 ft 405 kts 306°
2026-04-24 08:33 59.00901 5.71545 36265 ft 405 kts 306°
2026-04-24 08:33 59.04299 5.62873 36263 ft 405 kts 306°
2026-04-24 08:34 59.07710 5.54136 36270 ft 405 kts 306°
2026-04-24 08:34 59.11116 5.45379 36268 ft 405 kts 306°
2026-04-24 08:35 59.14515 5.36609 36271 ft 405 kts 306°
2026-04-24 08:35 59.17907 5.27821 36268 ft 405 kts 306°
2026-04-24 08:36 59.21295 5.19013 36268 ft 405 kts 306°
2026-04-24 08:36 59.24646 5.10267 36268 ft 404 kts 306°
2026-04-24 08:37 59.28013 5.01450 36268 ft 404 kts 306°
2026-04-24 08:37 59.31370 4.92622 36270 ft 404 kts 306°
2026-04-24 08:38 59.34726 4.83767 36276 ft 404 kts 306°
2026-04-24 08:38 59.38075 4.74895 36281 ft 404 kts 306°
2026-04-24 08:39 59.41415 4.66013 36293 ft 404 kts 306°
2026-04-24 08:39 59.44750 4.57112 36301 ft 404 kts 306°